Regional Weather Roundup
Issued by NWS Burlington, VT

Home | Current Version | Previous Version | Text Only | Print | Product List | Glossary On
Versions: 1 2 3 4 5 6 7 8 9 10 11 12 13 14 15 16 17 18 19 20 21 22 23 24 25 26 27 28 29 30 31 32 33 34 35 36 37 38 39 40 41 42 43 44 45 46 47 48 49 50
000
ASUS41 KBTV 311330
RWRBTV
VERMONT REGIONAL WEATHER ROUNDUP
NATIONAL WEATHER SERVICE BURLINGTON VT
900 AM EDT THU JUL 31 2014

NOTE: "FAIR" INDICATES FEW OR NO CLOUDS BELOW 12,000 FEET WITH NO
SIGNIFICANT WEATHER AND/OR OBSTRUCTIONS TO VISIBILITY.

* THESE REPORTS ARE NOT UNDER NWS QUALITY CONTROL AND/OR DO NOT
  REPORT WEATHER SUCH AS PRECIPITATION AND FOG.

VTZ001>019-311400-
_____VERMONT_____


CITY           SKY/WX    TMP DP  RH WIND       PRES   REMARKS
BURLINGTON     PTSUNNY   67  56  67 S9        30.03F
MONTPELIER     PTSUNNY   59  56  89 N3        30.10S
MORRISVILLE    MOSUNNY   65  57  75 CALM      30.07S
ST. JOHNSBURY*   N/A     57  53  86 MISG      30.07S
LYNDONVILLE*   CLOUDY    57  52  83 CALM      30.10S
MIDDLEBURY*    FAIR      66  58  76 S5        30.04F
RUTLAND*       CLOUDY    64  57  77 CALM      30.06F
SPRINGFIELD    CLOUDY    58  54  86 CALM      30.10S
HIGHGATE*      FAIR      68  58  72 S7        30.02F
NEWPORT*       FAIR      63  56  77 S7        30.06F
BENNINGTON     LGT RAIN  63  57  81 SW3       30.08S
GALLUP MILLS*    N/A     45 N/A N/A MISG        N/A
UNION VILLAGE*   N/A     61 N/A N/A MISG        N/A
MT. MANSFIELD*   N/A     54 N/A N/A SW7         N/A

_____LAKE CHAMPLAIN_____


CITY           SKY/WX    TMP DP  RH WIND       PRES   REMARKS
COLCHESTER RF*   N/A     64  59  82 S15         N/A
DIAMOND ISL*     N/A     64  57  77 S8          N/A

$$

NYZ007-026>031-035-052-083-311400-
_____NORTHERN NEW YORK_____


CITY           SKY/WX    TMP DP  RH WIND       PRES   REMARKS
PLATTSBURGH    MOSUNNY   65  58  78 CALM      30.02F
SARANAC LAKE   MOSUNNY   61  54  77 CALM      30.03S
MASSENA        MOSUNNY   63  58  83 SE3       30.00F
OGDENSBURG*    TSTM      61  57  88 S3        29.99S
POTSDAM*       CLOUDY    66  61  82 SW6       29.99F
PARISHVILLE*     N/A     63 N/A N/A SE14        N/A
WATERTOWN      LGT RAIN  62  56  80 S7        30.00S
FT DRUM        RAIN      59  59 100 S8        30.01R FOG
ALBANY         CLOUDY    64  57  78 S8        30.07S
GLENS FALLS    PTSUNNY   64  58  80 S7        30.06R

$$
NHZ002-005-011-311400-
_____NEW HAMPSHIRE_____


CITY           SKY/WX    TMP DP  RH WIND       PRES   REMARKS
LEBANON        CLOUDY    60  55  83 CALM      30.08S
KEENE          MOSUNNY   64  52  63 CALM      30.10F
MT WASHINGTON  FOG       45  45 100 SW24G31     N/A  VSB 1/16
PLYMOUTH       CLOUDY    56  55  97 CALM      30.10S
WHITEFIELD     CLOUDY    56  53  90 CALM      30.09S

$$

_____REGIONAL QUEBEC LOCATIONS_____


CITY           SKY/WX    TMP DP  RH WIND       PRES   REMARKS
MONTREAL       CLOUDY    64  57  77 S6        30.01F
QUEBEC CITY    PTSUNNY   63  57  82 NE6       30.04S
SHERBROOKE     CLOUDY    59  55  88 E2        30.06S

_____REGIONAL ONTARIO LOCATIONS_____


CITY           SKY/WX    TMP DP  RH WIND       PRES   REMARKS
OTTAWA         LGT RAIN  61  61 100 VRB2      29.98F

______KEY______
VSB  - VISIBILITY IN MILES
WCI  - WIND CHILL INDEX
HX   - HEAT INDEX
$$



USA.gov is the U.S. government's official web portal to all federal, state and local government web resources and services.